Weather History for Fort Leonard Wood, MO

Change the Weather History Date:

Saturday, March 2, 2013

  Actual Average Record
Temperature  
Mean Temperature 25 °F -  
Max Temperature 31 °F 47 °F 75 °F (2008)
Min Temperature 19 °F 31 °F 4 °F (2014)
Degree Days  
Heating Degree Days 40    
Moisture  
Dew Point 20 °F    
Average Humidity 82    
Maximum Humidity 93    
Minimum Humidity 56    
Precipitation  
Precipitation 0.00 in - - ()
Sea Level Pressure  
Sea Level Pressure 30.26 in    
Wind  
Wind Speed 10 mph (NNW)    
Max Wind Speed 13 mph    
Max Gust Speed 18 mph    
Visibility 10 miles    
Events Snow    
Averages and records for this station are not official NWS values.
T = Trace of Precipitation, MM = Missing Value Source: NWS Daily Summary

Daily Weather History Graph

Daily Weather History Graph

Search for Another Location

Airport:

Trip Planner

Search our weather history database for the weather conditions in past years. The results will help you decide how hot, cold, wet, or windy it might be!

Date:

Astronomy

Mar. 02, 2013 Rise Set
Actual Time 6:38 AM CST 6:03 PM CST
Civil Twilight 6:12 AM CST 6:29 PM CST
Nautical Twilight 5:41 AM CST 7:00 PM CST
Astronomical Twilight 5:11 AM CST 7:30 PM CST
Moon 11:36 PM CST (3/2) 9:13 AM CST (3/2)
Length of Visible Light 12h 17m
Length of Day
11h 25m
Waning Gibbous, 74% of the Moon is Illuminated
Mar 2
Waning Gibbous
Mar 4
Last Quarter
Mar 11
New
Mar 19
First Quarter
Mar 27
Full

Hourly Weather History & Observations

Time (CST) Temp. Windchill Dew Point Humidity Pressure Visibility Wind Dir Wind Speed Gust Speed Precip Events Conditions
12:12 AM 26.6 °F 15.7 °F 21.2 °F 80% 30.24 in 10.0 mi North 12.7 mph 17.3 mph N/A   Overcast
12:13 AM 26.6 °F 16.2 °F 21.2 °F 80% 30.24 in 10.0 mi North 11.5 mph 17.3 mph N/A   Overcast
12:15 AM 26.6 °F 16.8 °F 21.2 °F 80% 30.24 in 10.0 mi North 10.4 mph 17.3 mph N/A   Overcast
12:16 AM 26.6 °F 17.5 °F 21.2 °F 80% 30.24 in 10.0 mi North 9.2 mph 17.3 mph N/A   Overcast
12:31 AM 26.6 °F 16.8 °F 21.2 °F 80% 30.24 in 10.0 mi North 10.4 mph - N/A   Overcast
12:45 AM 26.6 °F 17.5 °F 21.2 °F 80% 30.24 in 10.0 mi NNW 9.2 mph - N/A   Overcast
12:48 AM 24.8 °F 15.3 °F 21.2 °F 86% 30.24 in 10.0 mi North 9.2 mph - N/A   Overcast
12:55 AM 25.5 °F 15.5 °F 21.6 °F 85% 30.24 in 10.0 mi North 10.4 mph - 0.00 in   Overcast
1:11 AM 24.8 °F 14.0 °F 21.2 °F 86% 30.24 in 10.0 mi North 11.5 mph - N/A   Overcast
1:38 AM 24.8 °F 14.0 °F 21.2 °F 86% 30.25 in 10.0 mi NNW 11.5 mph - N/A   Overcast
1:43 AM 24.8 °F 14.6 °F 21.2 °F 86% 30.25 in 10.0 mi NNW 10.4 mph - N/A   Overcast
1:47 AM 24.8 °F 15.3 °F 21.2 °F 86% 30.25 in 10.0 mi NNW 9.2 mph - N/A   Overcast
1:48 AM 24.8 °F 15.3 °F 21.2 °F 86% 30.25 in 10.0 mi NNW 9.2 mph - N/A   Overcast
1:50 AM 24.8 °F 14.0 °F 21.2 °F 86% 30.25 in 10.0 mi NNW 11.5 mph - N/A   Overcast
1:51 AM 24.8 °F 14.6 °F 21.2 °F 86% 30.25 in 10.0 mi NNW 10.4 mph - N/A   Overcast
1:53 AM 24.8 °F 15.3 °F 21.2 °F 86% 30.25 in 10.0 mi NNW 9.2 mph - N/A   Overcast
1:55 AM 25.0 °F 15.5 °F 21.0 °F 85% 30.25 in 10.0 mi NNW 9.2 mph - 0.00 in   Overcast
2:11 AM 24.8 °F 14.0 °F 21.2 °F 86% 30.25 in 10.0 mi NNW 11.5 mph - N/A Snow Light Snow
2:13 AM 24.8 °F 14.6 °F 21.2 °F 86% 30.25 in 10.0 mi NNW 10.4 mph - N/A   Overcast
2:16 AM 24.8 °F 14.6 °F 21.2 °F 86% 30.25 in 10.0 mi NNW 10.4 mph - N/A   Overcast
2:18 AM 24.8 °F 14.0 °F 21.2 °F 86% 30.25 in 10.0 mi NNW 11.5 mph - N/A   Overcast
2:20 AM 24.8 °F 14.0 °F 21.2 °F 86% 30.25 in 10.0 mi NNW 11.5 mph - N/A   Overcast
2:25 AM 24.8 °F 16.1 °F 21.2 °F 86% 30.24 in 10.0 mi NNW 8.1 mph - N/A   Overcast
2:29 AM 24.8 °F 16.9 °F 21.2 °F 86% 30.25 in 10.0 mi NNW 6.9 mph - N/A   Overcast
2:31 AM 24.8 °F 15.3 °F 21.2 °F 86% 30.25 in 10.0 mi NNW 9.2 mph - N/A   Overcast
2:32 AM 24.8 °F 15.3 °F 21.2 °F 86% 30.24 in 10.0 mi NNW 9.2 mph - N/A   Overcast
2:43 AM 24.8 °F 14.6 °F 21.2 °F 86% 30.24 in 10.0 mi NNW 10.4 mph - N/A   Overcast
2:45 AM 24.8 °F 14.6 °F 21.2 °F 86% 30.25 in 10.0 mi NNW 10.4 mph - N/A   Overcast
2:46 AM 24.8 °F 15.3 °F 21.2 °F 86% 30.25 in 10.0 mi NNW 9.2 mph - N/A   Overcast
2:55 AM 24.6 °F 13.2 °F 20.7 °F 85% 30.24 in 10.0 mi NNW 12.7 mph - 0.00 in   Overcast
2:56 AM 24.8 °F 14.0 °F 21.2 °F 86% 30.24 in 10.0 mi NNW 11.5 mph - N/A   Overcast
3:05 AM 24.8 °F 15.3 °F 21.2 °F 86% 30.24 in 10.0 mi NNW 9.2 mph - N/A   Overcast
3:07 AM 24.8 °F 14.6 °F 21.2 °F 86% 30.24 in 10.0 mi NNW 10.4 mph - N/A Snow Light Snow
3:09 AM 24.8 °F 16.1 °F 21.2 °F 86% 30.24 in 10.0 mi NNW 8.1 mph - N/A   Overcast
3:17 AM 24.8 °F 16.1 °F 21.2 °F 86% 30.24 in 10.0 mi NNW 8.1 mph - N/A   Overcast
3:21 AM 24.8 °F 15.3 °F 21.2 °F 86% 30.24 in 10.0 mi NNW 9.2 mph - N/A   Overcast
3:47 AM 24.8 °F 15.3 °F 21.2 °F 86% 30.24 in 10.0 mi NW 9.2 mph - N/A Snow Light Snow
3:49 AM 24.8 °F 15.3 °F 21.2 °F 86% 30.24 in 10.0 mi NW 9.2 mph - N/A Snow Light Snow
3:51 AM 24.8 °F 14.6 °F 21.2 °F 86% 30.24 in 10.0 mi NW 10.4 mph - N/A Snow Light Snow
3:53 AM 24.8 °F 14.6 °F 21.2 °F 86% 30.24 in 10.0 mi NW 10.4 mph - N/A Snow Light Snow
3:55 AM 23.9 °F 15.8 °F 21.0 °F 89% 30.24 in 10.0 mi NW 6.9 mph - 0.00 in Snow Light Snow
3:57 AM 23.0 °F 13.9 °F 21.2 °F 93% 30.24 in 10.0 mi NW 8.1 mph - N/A Snow Light Snow
4:06 AM 23.0 °F 13.1 °F 21.2 °F 93% 30.24 in 10.0 mi NW 9.2 mph - N/A   Overcast
4:11 AM 23.0 °F 12.4 °F 21.2 °F 93% 30.24 in 10.0 mi NW 10.4 mph - N/A   Overcast
4:18 AM 23.0 °F 12.4 °F 19.4 °F 86% 30.24 in 10.0 mi NW 10.4 mph - N/A   Overcast
4:37 AM 23.0 °F 11.7 °F 19.4 °F 86% 30.25 in 10.0 mi NW 11.5 mph - N/A   Overcast
4:55 AM 23.0 °F 11.1 °F 19.4 °F 86% 30.25 in 10.0 mi NNW 12.7 mph - 0.00 in   Overcast
5:05 AM 23.0 °F 11.1 °F 19.4 °F 86% 30.25 in 10.0 mi NNW 12.7 mph - N/A   Overcast
5:14 AM 23.0 °F 13.1 °F 19.4 °F 86% 30.25 in 10.0 mi NNW 9.2 mph - N/A   Overcast
5:55 AM 22.1 °F 12.0 °F 20.1 °F 92% 30.26 in 10.0 mi NW 9.2 mph - 0.00 in Snow Light Snow
6:55 AM 22.8 °F 12.9 °F 21.0 °F 93% 30.28 in 7.0 mi NW 9.2 mph - 0.00 in Snow Light Snow
7:12 AM 23.0 °F 12.4 °F 21.2 °F 93% 30.29 in 7.0 mi NW 10.4 mph - N/A Snow Light Snow
7:55 AM 23.0 °F 13.1 °F 20.8 °F 91% 30.30 in 7.0 mi NW 9.2 mph - 0.00 in Snow Light Snow
8:55 AM 24.1 °F 13.7 °F 21.0 °F 88% 30.30 in 10.0 mi NNW 10.4 mph - 0.00 in Snow Light Snow
9:55 AM 25.0 °F 14.2 °F 20.8 °F 84% 30.31 in 10.0 mi NNW 11.5 mph - 0.00 in Snow Light Snow
10:19 AM 24.8 °F 15.3 °F 21.2 °F 86% 30.31 in 8.0 mi NW 9.2 mph - N/A Snow Light Snow
10:20 AM 24.8 °F 16.1 °F 21.2 °F 86% 30.31 in 8.0 mi NW 8.1 mph - N/A Snow Light Snow
10:34 AM 24.8 °F 14.0 °F 21.2 °F 86% 30.31 in 10.0 mi NW 11.5 mph - N/A   Overcast
10:51 AM 26.6 °F 18.2 °F 21.2 °F 80% 30.31 in 10.0 mi NW 8.1 mph - N/A   Overcast
10:55 AM 26.1 °F 16.2 °F 20.1 °F 78% 30.31 in 10.0 mi NW 10.4 mph - 0.00 in   Overcast
11:55 AM 26.4 °F 16.6 °F 19.4 °F 75% 30.31 in 10.0 mi NNW 10.4 mph - 0.00 in Snow Light Snow
12:36 PM 28.4 °F 18.5 °F 17.6 °F 64% 30.30 in 10.0 mi NW 11.5 mph - N/A   Overcast
12:39 PM 28.4 °F 19.7 °F 17.6 °F 64% 30.29 in 10.0 mi NNW 9.2 mph - N/A   Overcast
12:55 PM 28.6 °F 18.7 °F 17.8 °F 64% 30.28 in 10.0 mi NW 11.5 mph - 0.00 in   Overcast
1:03 PM 28.4 °F 18.0 °F 17.6 °F 64% 30.28 in 10.0 mi North 12.7 mph - N/A   Mostly Cloudy
1:06 PM 28.4 °F 19.7 °F 17.6 °F 64% 30.28 in 10.0 mi NNW 9.2 mph - N/A   Overcast
1:16 PM 30.2 °F 21.3 °F 17.6 °F 60% 30.28 in 10.0 mi NNW 10.4 mph - N/A   Overcast
1:55 PM 30.0 °F 21.7 °F 18.0 °F 61% 30.27 in 10.0 mi NNW 9.2 mph - N/A   Scattered Clouds
2:55 PM 31.1 °F 21.4 °F 17.2 °F 57% 30.26 in 10.0 mi NW 12.7 mph 18.4 mph N/A   Partly Cloudy
3:55 PM 31.3 °F 22.1 °F 17.2 °F 56% 30.25 in 10.0 mi NW 11.5 mph 17.3 mph N/A   Clear
4:55 PM 30.7 °F 21.4 °F 17.8 °F 59% 30.26 in 10.0 mi NNW 11.5 mph - N/A   Clear
5:55 PM 28.8 °F 21.7 °F 17.6 °F 63% 30.27 in 10.0 mi NNW 6.9 mph - N/A   Clear
6:55 PM 25.0 °F 18.1 °F 16.7 °F 71% 30.27 in 10.0 mi NNW 5.8 mph - N/A   Clear
7:55 PM 24.4 °F - 16.3 °F 71% 30.27 in 10.0 mi Calm Calm - N/A   Clear
8:55 PM 22.6 °F 16.5 °F 16.0 °F 76% 30.27 in 10.0 mi NNW 4.6 mph - N/A   Clear
9:55 PM 21.6 °F - 16.3 °F 80% 30.26 in 10.0 mi Calm Calm - N/A   Clear
10:55 PM 19.2 °F - 16.0 °F 87% 30.25 in 10.0 mi Calm Calm - N/A   Clear
11:55 PM 19.8 °F - 17.4 °F 91% 30.24 in 10.0 mi Calm Calm - N/A   Clear